Simultaneous Nadir Overpasses (SNOs) Predictions

Prediction of SNOs between AQUA and METOP-B Satellite Orbit:

Table of predicted SNOs for the next 14.0 days since TLE Epoch: 2/6/2021
Index Date (AQUA) Time (AQUA) Lat,Lon (AQUA) SZA (AQUA ) Date (METOP-B) Time (METOP-B) Lat,Lon (METOP-B) SZA (METOP-B ) Distance(km) Time Diff (sec)
1 02/07/2021 22:43:17 73.39,-165.73 88.48 02/07/2021 22:42:08 73.33,-167.39 88.51 53.36 69
2 02/07/2021 23:32:51 -73.81, 1.02 91.09 02/07/2021 23:32:41 -73.80, 1.00 91.09 0.94 10
3 02/08/2021 00:22:19 73.86, 168.55 88.96 02/08/2021 00:23:19 73.86, 168.49 88.96 1.96 60
4 02/10/2021 18:17:37 73.61, -99.76 87.81 02/10/2021 18:16:25 73.56,-100.47 87.81 22.88 72
5 02/10/2021 19:07:07 -73.81, 67.44 91.99 02/10/2021 19:07:02 -73.83, 67.49 91.97 2.61 5
6 02/10/2021 19:56:35 73.87,-125.04 88.06 02/10/2021 19:57:40 73.89,-125.04 88.07 2.72 65
7 02/13/2021 13:51:54 73.73, -33.58 87.00 02/13/2021 13:50:42 73.74, -33.64 87.03 2.36 72
8 02/13/2021 14:41:22 -73.83, 133.85 92.92 02/13/2021 14:41:23 -73.81, 133.85 92.93 1.30 1
9 02/13/2021 15:30:50 73.88, -58.63 87.14 02/13/2021 15:32:01 73.87, -58.68 87.12 2.05 71
10 02/16/2021 09:26:10 73.75, 32.81 86.05 02/16/2021 09:25:03 73.77, 32.83 86.08 1.83 67
11 02/16/2021 10:15:38 -73.85,-159.75 93.86 02/16/2021 10:15:44 -73.84,-159.67 93.87 2.70 6
12 02/16/2021 11:05:08 74.01, 7.52 86.31 02/16/2021 11:06:20 73.99, 8.04 86.26 15.74 72
13 02/19/2021 05:00:26 73.78, 99.19 85.09 02/19/2021 04:59:24 73.79, 99.30 85.11 3.72 62
14 02/19/2021 05:49:53 -73.82, -93.26 94.88 02/19/2021 05:50:06 -73.82, -93.31 94.88 1.54 13



Historial Predications of SNOs between AQUA and METOP-B
